2016-10-15 00:03:15 r, 16.89m,0000000015Hz,0000031475c,0000000.068s, 024.4C,00002191
2016-10-15 00:13:15 r, 17.19m,0000000011Hz,0000041081c,0000000.089s, 024.8C,00002191
2016-10-15 00:23:15 r, 17.11m,0000000012Hz,0000038352c,0000000.083s, 024.8C,00002191
2016-10-15 00:33:15 r, 17.38m,0000000009Hz,0000048918c,0000000.106s, 024.8C,00002191
2016-10-15 00:43:16 r, 17.57m,0000000008Hz,0000058435c,0000000.127s, 024.8C,00002191
2016-10-15 00:53:16 r, 17.16m,0000000011Hz,0000040037c,0000000.087s, 024.8C,00002191
2016-10-15 01:03:16 r, 17.74m,0000000007Hz,0000068814c,0000000.149s, 024.8C,00002191
2016-10-15 01:13:15 r, 17.67m,0000000007Hz,0000064095c,0000000.139s, 024.8C,00002191
2016-10-15 01:23:16 r, 17.87m,0000000006Hz,0000076973c,0000000.167s, 024.8C,00002191
2016-10-15 01:33:15 r, 17.73m,0000000007Hz,0000068039c,0000000.148s, 024.8C,00002191
2016-10-15 01:43:15 r, 17.49m,0000000009Hz,0000054627c,0000000.119s, 024.8C,00002191
2016-10-15 01:53:15 r, 17.29m,0000000010Hz,0000045079c,0000000.098s, 024.4C,00002191
2016-10-15 02:03:16 r, 17.16m,0000000011Hz,0000040386c,0000000.088s, 024.4C,00002191
2016-10-15 02:13:15 r, 17.31m,0000000010Hz,0000046117c,0000000.100s, 024.4C,00002191
2016-10-15 02:23:15 r, 17.74m,0000000006Hz,0000068653c,0000000.149s, 024.4C,00002191
2016-10-15 02:33:16 r, 17.44m,0000000009Hz,0000052039c,0000000.113s, 024.8C,00002191
2016-10-15 02:43:15 r, 17.49m,0000000009Hz,0000054324c,0000000.118s, 024.4C,00002191
2016-10-15 02:53:15 r, 17.42m,0000000009Hz,0000050893c,0000000.110s, 024.4C,00002191
2016-10-15 03:03:15 r, 17.36m,0000000009Hz,0000048217c,0000000.105s, 024.1C,00002191
2016-10-15 03:13:16 r, 17.27m,0000000010Hz,0000044323c,0000000.096s, 024.1C,00002191
2016-10-15 03:23:15 r, 17.21m,0000000011Hz,0000042236c,0000000.092s, 024.1C,00002191
2016-10-15 03:33:15 r, 17.78m,0000000006Hz,0000071152c,0000000.154s, 024.1C,00002191
2016-10-15 03:43:15 r, 17.98m,0000000006Hz,0000085342c,0000000.185s, 024.1C,00002191
2016-10-15 03:53:15 r, 18.31m,0000000004Hz,0000116135c,0000000.252s, 024.1C,00002191
2016-10-15 04:03:16 r, 18.08m,0000000005Hz,0000094187c,0000000.204s, 024.1C,00002191
2016-10-15 04:13:15 r, 18.16m,0000000005Hz,0000100795c,0000000.219s, 023.8C,00002191
2016-10-15 04:23:16 r, 18.54m,0000000003Hz,0000143057c,0000000.310s, 023.8C,00002191
2016-10-15 04:33:16 r, 18.91m,0000000002Hz,0000200266c,0000000.435s, 023.5C,00002191
2016-10-15 04:43:15 r, 18.88m,0000000002Hz,0000193921c,0000000.421s, 023.5C,00002191
2016-10-15 04:53:15 r, 18.16m,0000000005Hz,0000100960c,0000000.219s, 023.8C,00002191
2016-10-15 05:03:16 r, 18.46m,0000000004Hz,0000131548c,0000000.285s, 023.5C,00002191
2016-10-15 05:13:15 r, 18.20m,0000000005Hz,0000104507c,0000000.227s, 023.5C,00002191
2016-10-15 05:23:16 r, 18.07m,0000000005Hz,0000092287c,0000000.200s, 023.5C,00002191
2016-10-15 05:33:15 r, 18.44m,0000000003Hz,0000129469c,0000000.281s, 023.5C,00002191
2016-10-15 05:43:16 r, 18.42m,0000000004Hz,0000127551c,0000000.277s, 023.5C,00002191
2016-10-15 05:53:16 r, 18.68m,0000000003Hz,0000162297c,0000000.352s, 023.5C,00002191
2016-10-15 06:03:15 r, 18.45m,0000000004Hz,0000130487c,0000000.283s, 023.5C,00002191
2016-10-15 06:13:16 r, 18.63m,0000000003Hz,0000155624c,0000000.338s, 023.5C,00002191
2016-10-15 06:23:15 r, 18.63m,0000000003Hz,0000154407c,0000000.335s, 023.5C,00002191
2016-10-15 06:33:16 r, 19.06m,0000000002Hz,0000229378c,0000000.498s, 023.5C,00002191
2016-10-15 06:43:16 r, 18.87m,0000000002Hz,0000193043c,0000000.419s, 023.2C,00002191
2016-10-15 06:53:15 r, 17.93m,0000000006Hz,0000081917c,0000000.178s, 023.2C,00002191
2016-10-15 07:03:16 r, 16.34m,0000000024Hz,0000018861c,0000000.041s, 023.2C,00002191
2016-10-15 07:13:15 r, 14.29m,0000000163Hz,0000000000c,0000000.000s, 023.2C,00002191
2016-10-15 07:23:16 r, 12.18m,0000001142Hz,0000000000c,0000000.000s, 023.2C,00002191
2016-10-15 07:33:16 r, 10.22m,0000006916Hz,0000000000c,0000000.000s, 022.5C,00002191
2016-10-15 07:43:15 r, 08.63m,0000029907Hz,0000000000c,0000000.000s, 022.5C,00002191
2016-10-15 07:53:15 r, 07.54m,0000081634Hz,0000000000c,0000000.000s, 022.2C,00002191
2016-10-15 08:03:16 r, 06.40m,0000231651Hz,0000000000c,0000000.000s, 021.9C,00002191
2016-10-15 08:13:15 r, 00.00m,0000412345Hz,0000000000c,0000000.000s, 021.9C,00002191
2016-10-15 08:23:15 r, 00.00m,0000596395Hz,0000000000c,0000000.000s, 021.9C,00002191
2016-10-15 08:33:15 r, 00.00m,0000596378Hz,0000000000c,0000000.000s, 022.2C,00002191
2016-10-15 08:43:15 r, 00.00m,0000596320Hz,0000000000c,0000000.000s, 022.8C,00002191
2016-10-15 08:53:15 r, 00.00m,0000596255Hz,0000000000c,0000000.000s, 023.8C,00002191
2016-10-15 09:03:16 r, 00.00m,0000596184Hz,0000000000c,0000000.000s, 024.1C,00002191
2016-10-15 09:13:16 r, 00.00m,0000596226Hz,0000000000c,0000000.000s, 023.8C,00002191
2016-10-15 09:23:15 r, 00.00m,0000596333Hz,0000000000c,0000000.000s, 023.8C,00002191
2016-10-15 09:33:16 r, 00.00m,0000596315Hz,0000000000c,0000000.000s, 023.8C,00002191
2016-10-15 09:43:16 r, 00.00m,0000596264Hz,0000000000c,0000000.000s, 023.8C,00002191
2016-10-15 09:53:15 r, 00.00m,0000596194Hz,0000000000c,0000000.000s, 024.4C,00002191
2016-10-15 10:03:16 r, 00.00m,0000596085Hz,0000000000c,0000000.000s, 024.8C,00002191
2016-10-15 10:13:16 r, 00.00m,0000596006Hz,0000000000c,0000000.000s, 025.7C,00002191
2016-10-15 10:23:15 r, 00.00m,0000595880Hz,0000000000c,0000000.000s, 026.1C,00002191
2016-10-15 10:33:15 r, 00.00m,0000595893Hz,0000000000c,0000000.000s, 026.4C,00002191
2016-10-15 10:43:16 r, 00.00m,0000595799Hz,0000000000c,0000000.000s, 027.3C,00002191
2016-10-15 10:53:16 r, 00.00m,0000595655Hz,0000000000c,0000000.000s, 029.0C,00002191
2016-10-15 11:03:16 r, 00.00m,0000595506Hz,0000000000c,0000000.000s, 029.9C,00002191
2016-10-15 11:13:16 r, 00.00m,0000595411Hz,0000000000c,0000000.000s, 031.5C,00002191
2016-10-15 11:23:15 r, 00.00m,0000595207Hz,0000000000c,0000000.000s, 031.9C,00002191
2016-10-15 11:33:16 r, 00.00m,0000595195Hz,0000000000c,0000000.000s, 032.8C,00002191
2016-10-15 11:43:15 r, 00.00m,0000595151Hz,0000000000c,0000000.000s, 033.1C,00002191
2016-10-15 11:53:15 r, 00.00m,0000595133Hz,0000000000c,0000000.000s, 033.5C,00002191
2016-10-15 12:03:16 r, 00.00m,0000595162Hz,0000000000c,0000000.000s, 034.1C,00002191
2016-10-15 12:13:16 r, 00.00m,0000595032Hz,0000000000c,0000000.000s, 033.8C,00002191
2016-10-15 12:23:15 r, 00.00m,0000594844Hz,0000000000c,0000000.000s, 034.4C,00002191
2016-10-15 12:33:16 r, 00.00m,0000594907Hz,0000000000c,0000000.000s, 034.8C,00002191
2016-10-15 12:43:16 r, 00.00m,0000594993Hz,0000000000c,0000000.000s, 034.4C,00002191
2016-10-15 12:53:16 r, 00.00m,0000595058Hz,0000000000c,0000000.000s, 034.1C,00002191
2016-10-15 13:03:15 r, 00.00m,0000594944Hz,0000000000c,0000000.000s, 034.4C,00002191
2016-10-15 13:13:16 r, 00.00m,0000594893Hz,0000000000c,0000000.000s, 034.4C,00002191
2016-10-15 13:23:16 r, 00.00m,0000594830Hz,0000000000c,0000000.000s, 034.8C,00002191
2016-10-15 13:33:15 r, 00.00m,0000594788Hz,0000000000c,0000000.000s, 035.1C,00002191
2016-10-15 13:43:15 r, 00.00m,0000594835Hz,0000000000c,0000000.000s, 035.1C,00002191
2016-10-15 13:53:15 r, 00.00m,0000594882Hz,0000000000c,0000000.000s, 035.1C,00002191
2016-10-15 14:03:16 r, 00.00m,0000594773Hz,0000000000c,0000000.000s, 034.8C,00002191
2016-10-15 14:13:15 r, 00.00m,0000594817Hz,0000000000c,0000000.000s, 035.1C,00002191
2016-10-15 14:23:15 r, 00.00m,0000594787Hz,0000000000c,0000000.000s, 034.8C,00002191
2016-10-15 14:33:16 r, 00.00m,0000594782Hz,0000000000c,0000000.000s, 034.8C,00002191
2016-10-15 14:43:16 r, 00.00m,0000594848Hz,0000000000c,0000000.000s, 034.1C,00002191
2016-10-15 14:53:16 r, 00.00m,0000594927Hz,0000000000c,0000000.000s, 033.5C,00002191
2016-10-15 15:03:15 r, 00.00m,0000595022Hz,0000000000c,0000000.000s, 033.1C,00002191
2016-10-15 15:13:16 r, 00.00m,0000595155Hz,0000000000c,0000000.000s, 032.5C,00002191
2016-10-15 15:23:16 r, 00.00m,0000595202Hz,0000000000c,0000000.000s, 032.2C,00002191
2016-10-15 15:33:16 r, 00.00m,0000595185Hz,0000000000c,0000000.000s, 031.9C,00002191
2016-10-15 15:43:15 r, 00.00m,0000595225Hz,0000000000c,0000000.000s, 031.9C,00002191
2016-10-15 15:53:16 r, 00.00m,0000595248Hz,0000000000c,0000000.000s, 031.2C,00002191
2016-10-15 16:03:16 r, 00.00m,0000595331Hz,0000000000c,0000000.000s, 031.2C,00002191
2016-10-15 16:13:16 r, 00.00m,0000595321Hz,0000000000c,0000000.000s, 030.6C,00002191
2016-10-15 16:23:16 r, 00.00m,0000595299Hz,0000000000c,0000000.000s, 029.9C,00002191
2016-10-15 16:33:16 r, 00.00m,0000595452Hz,0000000000c,0000000.000s, 029.6C,00002191
2016-10-15 16:43:16 r, 00.00m,0000595466Hz,0000000000c,0000000.000s, 029.0C,00002191
2016-10-15 16:53:15 r, 00.00m,0000595615Hz,0000000000c,0000000.000s, 028.3C,00002191
2016-10-15 17:03:16 r, 00.00m,0000595621Hz,0000000000c,0000000.000s, 027.7C,00002191
2016-10-15 17:13:16 r, 00.00m,0000595689Hz,0000000000c,0000000.000s, 027.0C,00002191
2016-10-15 17:23:16 r, 00.00m,0000595727Hz,0000000000c,0000000.000s, 026.7C,00002191
2016-10-15 17:33:16 r, 00.00m,0000595974Hz,0000000000c,0000000.000s, 025.7C,00002191
2016-10-15 17:43:16 r, 00.00m,0000552948Hz,0000000000c,0000000.000s, 025.1C,00002191
2016-10-15 17:53:16 r, 00.00m,0000476875Hz,0000000000c,0000000.000s, 024.4C,00002191
2016-10-15 18:03:16 r, 05.85m,0000386518Hz,0000000000c,0000000.000s, 023.8C,00002191
2016-10-15 18:13:16 r, 06.17m,0000289351Hz,0000000000c,0000000.000s, 023.2C,00002191
2016-10-15 18:23:16 r, 06.64m,0000186746Hz,0000000000c,0000000.000s, 022.2C,00002191
2016-10-15 18:33:16 r, 07.34m,0000097955Hz,0000000000c,0000000.000s, 021.5C,00002191
2016-10-15 18:43:16 r, 08.41m,0000036741Hz,0000000000c,0000000.000s, 020.3C,00002191
2016-10-15 18:53:16 r, 10.01m,0000008388Hz,0000000000c,0000000.000s, 019.6C,00002191
2016-10-15 19:03:16 r, 12.10m,0000001219Hz,0000000000c,0000000.000s, 019.0C,00002191
2016-10-15 19:13:16 r, 14.19m,0000000177Hz,0000000000c,0000000.000s, 018.3C,00002191
2016-10-15 19:23:16 r, 16.32m,0000000025Hz,0000018465c,0000000.040s, 018.0C,00002191
2016-10-15 19:33:16 r, 17.74m,0000000006Hz,0000068937c,0000000.150s, 017.4C,00002191
2016-10-15 19:43:16 r, 18.56m,0000000004Hz,0000145936c,0000000.317s, 017.4C,00002191
2016-10-15 19:53:16 r, 18.81m,0000000002Hz,0000183447c,0000000.398s, 017.0C,00002191
2016-10-15 20:03:16 r, 18.81m,0000000002Hz,0000182402c,0000000.396s, 016.7C,00002191
2016-10-15 20:13:16 r, 18.62m,0000000003Hz,0000153809c,0000000.334s, 016.4C,00002191
2016-10-15 20:23:16 r, 18.64m,0000000003Hz,0000157316c,0000000.341s, 016.1C,00002191
2016-10-15 20:33:16 r, 18.50m,0000000003Hz,0000138196c,0000000.300s, 016.1C,00002191
2016-10-15 20:43:16 r, 18.02m,0000000005Hz,0000088308c,0000000.192s, 016.4C,00002191
2016-10-15 20:53:16 r, 18.51m,0000000003Hz,0000139127c,0000000.302s, 016.7C,00002191
2016-10-15 21:03:16 r, 18.32m,0000000003Hz,0000116945c,0000000.254s, 016.7C,00002191
2016-10-15 21:13:16 r, 17.70m,0000000007Hz,0000066224c,0000000.144s, 016.7C,00002191
2016-10-15 21:23:16 r, 18.19m,0000000004Hz,0000103733c,0000000.225s, 016.4C,00002191
2016-10-15 21:33:16 r, 17.81m,0000000006Hz,0000073416c,0000000.159s, 016.4C,00002191
2016-10-15 21:43:16 r, 17.81m,0000000006Hz,0000072808c,0000000.158s, 016.1C,00002191
2016-10-15 21:53:16 r, 17.63m,0000000007Hz,0000061563c,0000000.134s, 016.1C,00002191
2016-10-15 22:03:16 r, 18.11m,0000000005Hz,0000096021c,0000000.208s, 015.7C,00002191
2016-10-15 22:13:16 r, 18.07m,0000000005Hz,0000092321c,0000000.200s, 015.7C,00002191
2016-10-15 22:23:16 r, 17.45m,0000000009Hz,0000052617c,0000000.114s, 015.4C,00002191
2016-10-15 22:33:16 r, 17.99m,0000000005Hz,0000086505c,0000000.188s, 015.4C,00002191
2016-10-15 22:43:16 r, 17.92m,0000000006Hz,0000081392c,0000000.177s, 015.1C,00002191
2016-10-15 22:53:16 r, 17.87m,0000000006Hz,0000077232c,0000000.168s, 015.1C,00002191
2016-10-15 23:03:16 r, 17.81m,0000000007Hz,0000073146c,0000000.159s, 014.8C,00002191
2016-10-15 23:13:16 r, 17.76m,0000000006Hz,0000070070c,0000000.152s, 014.8C,00002191
2016-10-15 23:23:16 r, 17.71m,0000000007Hz,0000066988c,0000000.145s, 014.8C,00002191
2016-10-15 23:33:16 r, 17.66m,0000000007Hz,0000063830c,0000000.139s, 014.5C,00002191
2016-10-15 23:43:16 r, 17.60m,0000000008Hz,0000060322c,0000000.131s, 014.5C,00002191
2016-10-15 23:53:16 r, 17.54m,0000000008Hz,0000056661c,0000000.123s, 014.1C,00002191
